TimeCDT,TemperatureF,Dew PointF,Humidity,Sea Level PressureIn,VisibilityMPH,Wind Direction,Wind SpeedMPH,Gust SpeedMPH,PrecipitationIn,Events,Conditions,WindDirDegrees,DateUTC
12:03 AM,35.6,35.6,100,29.91,2.0,Calm,Calm,-,N/A,,Clear,0,2013-10-17 05:03:00
12:08 AM,33.8,33.8,100,29.91,1.2,Calm,Calm,-,N/A,,Clear,0,2013-10-17 05:08:00
12:23 AM,32.0,32.0,100,29.91,1.0,Calm,Calm,-,N/A,,Clear,0,2013-10-17 05:23:00
12:28 AM,32.0,32.0,100,29.91,0.8,Calm,Calm,-,N/A,,Clear,0,2013-10-17 05:28:00
12:38 AM,33.8,33.8,100,29.91,1.0,Calm,Calm,-,N/A,,Clear,0,2013-10-17 05:38:00
12:43 AM,33.8,33.8,100,29.91,1.0,Calm,Calm,-,N/A,,Clear,0,2013-10-17 05:43:00
12:48 AM,33.8,33.8,100,29.91,1.2,Calm,Calm,-,N/A,,Clear,0,2013-10-17 05:48:00
12:53 AM,32.0,32.0,100,29.91,4.0,Calm,Calm,-,N/A,,Clear,0,2013-10-17 05:53:00
12:58 AM,32.0,32.0,100,29.94,1.8,Calm,Calm,-,N/A,,Clear,0,2013-10-17 05:58:00
1:03 AM,32.0,32.0,100,29.90,1.0,Calm,Calm,-,N/A,,Clear,0,2013-10-17 06:03:00
1:08 AM,32.0,32.0,100,29.91,1.0,Calm,Calm,-,N/A,,Clear,0,2013-10-17 06:08:00
1:13 AM,32.0,32.0,100,29.91,1.0,Calm,Calm,-,N/A,,Clear,0,2013-10-17 06:13:00
1:18 AM,32.0,32.0,100,29.91,1.5,Calm,Calm,-,N/A,,Clear,0,2013-10-17 06:18:00
1:23 AM,32.0,32.0,100,29.91,6.0,Calm,Calm,-,N/A,,Clear,0,2013-10-17 06:23:00
1:28 AM,32.0,32.0,100,29.91,2.0,Calm,Calm,-,N/A,,Clear,0,2013-10-17 06:28:00
1:33 AM,32.0,32.0,100,29.90,1.2,Calm,Calm,-,N/A,,Clear,0,2013-10-17 06:33:00
1:38 AM,32.0,32.0,100,29.90,1.8,Calm,Calm,-,N/A,,Clear,0,2013-10-17 06:38:00
1:48 AM,32.0,32.0,100,29.90,1.0,North,3.5,-,N/A,,Clear,350,2013-10-17 06:48:00
1:53 AM,32.0,32.0,100,29.90,1.0,NNW,2.3,-,N/A,,Clear,340,2013-10-17 06:53:00
1:58 AM,30.9,30.9,100,29.93,1.0,Calm,Calm,-,N/A,,Clear,0,2013-10-17 06:58:00
2:08 AM,32.0,32.0,100,29.90,1.2,SW,1.2,-,N/A,,Clear,230,2013-10-17 07:08:00
2:13 AM,32.0,32.0,100,29.90,1.5,Calm,Calm,-,N/A,,Clear,0,2013-10-17 07:13:00
2:18 AM,32.0,32.0,100,29.90,1.2,Calm,Calm,-,N/A,,Clear,0,2013-10-17 07:18:00
2:23 AM,32.0,32.0,100,29.90,0.8,Calm,Calm,-,N/A,,Clear,0,2013-10-17 07:23:00
2:38 AM,30.2,30.2,100,29.89,1.0,SSE,2.3,-,N/A,,Clear,150,2013-10-17 07:38:00
2:43 AM,32.0,32.0,100,29.89,1.8,SE,1.2,-,N/A,,Clear,130,2013-10-17 07:43:00
2:48 AM,30.2,30.2,100,29.89,4.0,SE,3.5,-,N/A,,Clear,130,2013-10-17 07:48:00
2:53 AM,32.0,32.0,100,29.89,5.0,SE,3.5,-,N/A,,Clear,130,2013-10-17 07:53:00
2:58 AM,30.4,30.4,100,29.92,5.0,SSE,5.8,-,N/A,,Clear,160,2013-10-17 07:58:00
3:08 AM,32.0,32.0,100,29.89,4.0,SSE,3.5,-,N/A,,Clear,150,2013-10-17 08:08:00
3:13 AM,32.0,32.0,100,29.89,1.8,ESE,3.5,-,N/A,,Clear,110,2013-10-17 08:13:00
3:18 AM,32.0,32.0,100,29.88,1.0,ESE,3.5,-,N/A,,Clear,120,2013-10-17 08:18:00
3:23 AM,32.0,32.0,100,29.89,0.8,ESE,3.5,-,N/A,,Clear,120,2013-10-17 08:23:00
3:38 AM,32.0,32.0,100,29.88,1.5,East,1.2,-,N/A,,Scattered Clouds,100,2013-10-17 08:38:00
3:43 AM,32.0,32.0,100,29.88,2.0,ESE,1.2,-,N/A,,Scattered Clouds,110,2013-10-17 08:43:00
3:48 AM,32.0,32.0,100,29.88,1.5,ESE,2.3,-,N/A,,Scattered Clouds,120,2013-10-17 08:48:00
3:58 AM,32.0,32.0,100,29.91,2.5,Calm,Calm,-,N/A,,Scattered Clouds,0,2013-10-17 08:58:00
4:03 AM,30.2,30.2,100,29.88,2.0,Calm,Calm,-,N/A,,Partly Cloudy,0,2013-10-17 09:03:00
4:08 AM,30.2,30.2,100,29.88,1.2,Calm,Calm,-,N/A,,Clear,0,2013-10-17 09:08:00
4:18 AM,32.0,32.0,100,29.88,2.0,Calm,Calm,-,N/A,,Clear,0,2013-10-17 09:18:00
4:23 AM,32.0,32.0,100,29.88,7.0,Calm,Calm,-,N/A,,Clear,0,2013-10-17 09:23:00
4:28 AM,32.0,32.0,100,29.88,10.0,Calm,Calm,-,N/A,,Clear,0,2013-10-17 09:28:00
4:33 AM,30.2,30.2,100,29.88,6.0,Calm,Calm,-,N/A,,Clear,0,2013-10-17 09:33:00
4:38 AM,28.4,28.4,100,29.88,1.8,Calm,Calm,-,N/A,,Clear,0,2013-10-17 09:38:00
4:43 AM,28.4,28.4,100,29.88,1.2,Calm,Calm,-,N/A,,Clear,0,2013-10-17 09:43:00
4:53 AM,28.4,28.4,100,29.88,2.5,Calm,Calm,-,N/A,,Clear,0,2013-10-17 09:53:00
4:58 AM,28.8,28.4,99,29.91,6.0,Calm,Calm,-,N/A,,Clear,0,2013-10-17 09:58:00
5:08 AM,28.4,28.4,100,29.88,4.0,Calm,Calm,-,N/A,,Clear,0,2013-10-17 10:08:00
5:18 AM,26.6,26.6,100,29.88,4.0,Calm,Calm,-,N/A,,Clear,0,2013-10-17 10:18:00
5:28 AM,26.6,26.6,100,29.88,3.0,Calm,Calm,-,N/A,,Clear,0,2013-10-17 10:28:00
5:33 AM,26.6,26.6,100,29.88,2.5,Calm,Calm,-,N/A,,Clear,0,2013-10-17 10:33:00
5:38 AM,26.6,26.6,100,29.88,3.0,Calm,Calm,-,N/A,,Clear,0,2013-10-17 10:38:00
5:43 AM,26.6,26.6,100,29.88,3.0,Calm,Calm,-,N/A,,Clear,0,2013-10-17 10:43:00
5:58 AM,27.7,27.5,99,29.91,10.0,ESE,3.5,-,N/A,,Mostly Cloudy,120,2013-10-17 10:58:00
6:58 AM,33.8,33.8,100,29.90,10.0,SSE,2.3,-,N/A,,Mostly Cloudy,150,2013-10-17 11:58:00
7:58 AM,32.4,32.4,100,29.89,10.0,Calm,Calm,-,N/A,,Scattered Clouds,0,2013-10-17 12:58:00
8:58 AM,37.4,37.4,100,29.89,10.0,SE,2.3,-,N/A,,Mostly Cloudy,140,2013-10-17 13:58:00
9:58 AM,41.0,41.0,100,29.85,10.0,Calm,Calm,-,N/A,,Overcast,0,2013-10-17 14:58:00
10:58 AM,44.6,44.6,100,29.88,10.0,WNW,2.3,-,N/A,,Overcast,290,2013-10-17 15:58:00
11:58 AM,50.0,41.0,71,29.86,10.0,Variable,2.3,-,N/A,,Mostly Cloudy,0,2013-10-17 16:58:00
12:58 PM,51.8,39.2,62,29.85,10.0,Variable,3.5,-,N/A,,Mostly Cloudy,0,2013-10-17 17:58:00
1:58 PM,55.4,37.4,51,29.83,10.0,West,8.1,-,N/A,,Mostly Cloudy,280,2013-10-17 18:58:00
2:58 PM,55.4,37.4,51,29.82,10.0,WNW,8.1,-,N/A,,Overcast,300,2013-10-17 19:58:00
3:58 PM,55.4,37.4,51,29.82,10.0,West,8.1,-,N/A,,Mostly Cloudy,260,2013-10-17 20:58:00
4:58 PM,55.4,37.4,51,29.81,10.0,West,9.2,-,N/A,,Mostly Cloudy,270,2013-10-17 21:58:00
5:58 PM,50.0,39.4,67,29.82,10.0,SW,4.6,-,N/A,,Overcast,230,2013-10-17 22:58:00
6:58 PM,44.6,39.2,81,29.84,10.0,SW,2.3,-,N/A,,Overcast,220,2013-10-17 23:58:00
7:58 PM,39.2,37.4,93,29.84,10.0,SE,2.3,-,N/A,,Mostly Cloudy,130,2013-10-18 00:58:00
8:58 PM,37.4,37.4,100,29.83,10.0,SSE,3.5,-,N/A,,Overcast,150,2013-10-18 01:58:00
9:58 PM,41.0,39.2,93,29.83,10.0,SE,1.2,-,N/A,,Overcast,140,2013-10-18 02:58:00
10:58 PM,42.8,39.2,87,29.82,10.0,SSE,4.6,-,N/A,,Overcast,160,2013-10-18 03:58:00
11:55 PM,44.6,39.2,81,29.78,10.0,Variable,1.2,-,N/A,Rain,Light Rain,0,2013-10-18 04:55:00
11:58 PM,44.6,39.2,81,29.81,10.0,Variable,1.2,-,N/A,Rain,Light Rain,0,2013-10-18 04:58:00